Weather in Nychalakh

Russia / Sakha (Yakutia) Republic     69°56′06″N   146°12′32″E
temp.,
°C
wind,
m/s
gust,
m/s
humid.,
%
clouds,
%
prec.,
mm/h
press.,
hPa
HPBL,
m
26 september, sun
sun2623:000wnw81497100 1.5 1016723
02:00+1wnw81397100 0.3 1016695
05:00+1nw71197100 0.5 1017726
08:00+1wnw61097100 0.3 1017699
11:00+1w61297100 0.6 1017477
14:00+1wnw71296100 0.3 1016612
17:00+1w81496100 0.4 1015649
20:00+1wnw91597100 0.6 1014757
27 september, mon
mon2723:000wnw101697100 1.3 1013808
02:000wnw101797100 0.9 1011799
05:000nnw81297100 1.6 1012735
08:00−2nnw6986100 0.3 1015983
11:00−2nw71077100 0.3 10161259
14:00−2nw81278100 0.1 10161330
17:00−2nw7117698 0.3 1016922
20:00−5wnw6128982 0.1 1016346
28 september, tue
tue2823:00−4wnw71388100 0.1 1015483
02:00−4nw81584100 0.0 1014546
05:00−5nnw6119294 0.3 1015446
08:00−7nw49965 0.0 1016157
11:00−5nw610845 0.0 1016411
14:00−3nw7108076 0.0 1016880
17:00−3nw81387100 0.0 1016591
20:00−3nw71394100 0.2 1016475
29 september, wed
wed2923:00−4nw61093100 0.2 1017300
02:00−5nw5995100 0.1 1018203
05:00−6nw479582 0.1 1019162
08:00−8nw369659 0.0 1020108
11:00−5nw358955 0.0 1020206
14:00−3nw348682 0.0 1021325
17:00−4wnw24925 0.0 1021100
20:00−8w229862 0.0 102217
30 september, thu
thu3023:00−9w229865 0.0 102210
02:00−10sw119868 0.0 10229
05:00−11s229763 0.0 102210
08:00−10sse34935 0.0 102240
11:00−6sse45865 0.0 1022185
14:00−4se45825 0.0 1021309
17:00−5se36925 0.0 1021151
20:00−8se47955 0.0 102194